STARLINK-4068, 52681

Orbit data source: Space-Track

STARLINK-4068, 52681 is a payload satellite owned by SpaceX/Seattle (US) in LEO that was launched on Wed, 18 May 2022 UTC via an FALCON 9 launch vehicle from the Air Force Eastern Test Range (AFETR). Payload-class satellites include a variety of spacecraft equipped with specific instruments for various scientific and technological missions. These include communications satellites like Starlink; space stations such as the ISS; scientific satellites like the Hubble; Earth observation satellites from companies like Planet Labs, Umbra, and HawkEye 360; GPS; miniature CubeSats for education and research; and military/defense satellites.

Loading next visibility...
Identifier
52681, 2022-053AB
Orbit
LEO
Country
Flag of USUS
Related business
Manufacturer
SpaceX/Seattle
Mission
Operational Commercial Communications
Bus & Motor
STARLINK, Unknown motor
Mass
297 kg wet, ~275 kg dry
Launch date (UTC)
2022-05-18 (4 years ago)
Launch vehicle
FALCON 9
Launch site
Air Force Eastern Test Range (AFETR)
Object type
Payload
Rocket body
Debris
Shape & HBR
Box + 1 Pan, 10.1 m
Radar Cross Section
13.562 m², Large (>1 m²)

Expand to show TLE details & history
Last TLE update: 2 days ago

TLE from 2 days ago
0 STARLINK-4068
1 52681U 22053AB  26171.34953904 -.00001610  00000-0 -83103-4 0  9997
2 52681  53.1603  43.1513 0001241 100.4954 259.6178 15.08828865226638
Epoch: 2026-06-20T08:23Z
TLE epoch observation values (Epoch: 2026-06-20T08:23:20.173Z)
Latitude
0.00006°
Longitude
8.75185°
Altitude
540.824 km
Speed
7.593 km/s
True Right ascension
02h 52m 36s
True Declination
0° 00' 00"
Sunlit
Object was in daylight at epoch
Visualization orbit readout
Latitude
Unknown
Longitude
Unknown
Altitude
Unknown
Speed
Unknown
Apparent Right ascension
Unknown
Apparent Declination
Unknown
Sunlit
N/A
Visualization observer readout
Local Sidereal Time
21:24:46
Azimuth
Unknown
Elevation
Unknown
Doppler factor
Unknown
Orbital elements
Apogee altitude
540.89 km
Perigee altitude
539.173 km
Semi-major axis
6,918.168 km
Eccentricity
0.00012
Inclination
53.1603°
RAAN
43.1513°
Arg. of periapsis
100.4954°
True anomaly
259.60381°
Mean anomaly
259.6178°
Eccentric anomaly
259.61081°
Mean motion
3.77187 °/min
Orbital period
95.44 mins
BSTAR
-0.000083103
Loading maneuver chart data...
Computing Atmospheric mass density...
Loading historical data...
Loading historical data...
Loading historical data...
Loading historical data...
Loading historical data...
Loading historical data...
Loading historical data...

Documentation

Showing up to 5 results
|